Content
SEND FEEDBACK

Daily
Averages
Monthly
Summary
United States of America

BARRINGTON, ILLINOIS


Home > North America > United States > Illinois
Elevation: 810 feet     Latitude: 42 10N     Longitude: 088 09W

WEATHER
 
SELECT A DAY
Number of Records: 196,786;   Date Range: 1/1/95 - 9/18/14
 
SHARE

PRINT THIS DATA

[ ← Previous Day ]
WEATHER ALMANAC - MARCH 25, 2013
[ Next Day → ]
[ °C ]   °F
Weather ElementAverageHighLow
Temperature33.8 °F36 °F (10:51 am)32 °F (4:20 am)
Dewpoint25.3 °F28.9 °F (12:51 pm)21.9 °F (2:51 am)
Humidity71.1 %78 % (12:51 pm)64 % (2:51 am)
Barometer29.86 in30.07 in (10:51 pm)29.68 in (4:20 am)
Wind Speed16.1 mph21.9 mph (4:20 am)
Wind Gust31.1 mph (1:51 am)
Weather ElementAverage
Visibility9.5 mi
Wind DirectionSSW (207.3 °)

Weather ElementTotal
Precipitation---
Heating Degree Days31 (Base 65)
Averaged from 33 records on March 25, 2013
WEATHER CONDITIONS BREAKOUT
WIND DIRECTION BREAKOUT
WEATHER BY HOUR - MARCH 25, 2013
[ °C ]   °F
Local TimeTemperatureDewpointHumidityBarometerVisibilityWind DirectionWind SpeedGust SpeedPrecipitationEventsConditions
1:51 AM34.0 °F24.1 °F67 %29.70 in10.0 miNNE (20°)18.4 mph31.1 mphOvercast
2:51 AM33.1 °F21.9 °F64 %29.70 in10.0 miNNE (20°)18.4 mph25.3 mphOvercast
3:51 AM33.1 °F23.0 °F66 %29.70 in10.0 miNNE (20°)17.3 mph23.0 mphOvercast
4:20 AM32.0 °F23.0 °F69 %29.68 in10.0 miNNE (20°)21.9 mph27.6 mphOvercast
4:51 AM32.0 °F21.9 °F66 %29.71 in10.0 miNNE (20°)16.1 mph24.2 mphOvercast
5:51 AM33.1 °F24.1 °F70 %29.72 in10.0 miNNE (20°)18.4 mph26.5 mphOvercast
6:51 AM33.1 °F25.0 °F72 %29.74 in10.0 miNorth (10°)16.1 mph23.0 mphOvercast
7:39 AM33.8 °F26.6 °F75 %29.73 in10.0 miNorth (10°)15.0 mph23.0 mphOvercast
7:51 AM33.1 °F26.1 °F75 %29.75 in10.0 miNorth (10°)17.3 mph25.3 mphOvercast
8:51 AM34.0 °F26.1 °F73 %29.78 in10.0 miNNE (20°)21.9 mph29.9 mphOvercast
9:51 AM34.0 °F27.0 °F75 %29.81 in10.0 miNNE (20°)17.3 mph31.1 mph0.00 inOvercast
10:39 AM35.6 °F26.6 °F70 %29.81 in9.0 miNNE (20°)20.7 mph29.9 mph0.00 inSnowLight Snow
10:51 AM36.0 °F26.1 °F67 %29.83 in10.0 miNNE (30°)18.4 mph24.2 mph0.00 inOvercast
11:03 AM35.6 °F26.6 °F70 %29.81 in10.0 miNNE (30°)18.4 mph25.3 mphOvercast
11:51 AM34.0 °F27.0 °F75 %29.85 in10.0 miNorth (350°)19.6 mph0.00 inSnowLight Snow
12:51 PM35.1 °F28.9 °F78 %29.86 in10.0 miNNW (340°)20.7 mph0.00 inSnowLight Snow
1:38 PM33.8 °F26.6 °F75 %29.85 in7.0 miNorth (360°)16.1 mph0.00 inSnowLight Snow
1:51 PM35.1 °F27.0 °F72 %29.88 in10.0 miNNW (340°)17.3 mph21.9 mph0.00 inSnowLight Snow
2:12 PM35.6 °F26.6 °F70 %29.86 in9.0 miNorth (360°)13.8 mph24.2 mph0.00 inSnowLight Snow
2:32 PM33.8 °F26.6 °F75 %29.87 in9.0 miNorth (350°)17.3 mph0.00 inSnowLight Snow
2:51 PM34.0 °F27.0 °F75 %29.90 in9.0 miNorth (360°)17.3 mph0.00 inSnowLight Snow
3:51 PM34.0 °F27.0 °F75 %29.91 in9.0 miNNW (340°)19.6 mph26.5 mph0.00 inSnowLight Snow
4:13 PM33.8 °F26.6 °F75 %29.91 in9.0 miNorth (350°)12.7 mph21.9 mph0.00 inSnowLight Snow
4:51 PM34.0 °F26.1 °F73 %29.95 in10.0 miNNW (340°)15.0 mph0.00 inSnowLight Snow
5:51 PM33.8 °F24.8 °F70 %29.95 in9.0 miNNW (340°)16.1 mph25.3 mphSnowLight Snow
6:02 PM33.8 °F24.8 °F70 %29.96 in9.0 miNorth (360°)15.0 mph23.0 mph0.00 inSnowLight Snow
6:15 PM33.8 °F23.0 °F65 %29.97 in9.0 miNorth (360°)11.5 mph20.7 mph0.00 inSnowLight Snow
6:51 PM33.1 °F23.0 °F66 %30.01 in9.0 miNorth (350°)11.5 mph21.9 mph0.00 inSnowLight Snow
7:51 PM33.1 °F24.1 °F70 %30.03 in10.0 miNNW (330°)11.5 mph0.00 inOvercast
8:51 PM33.1 °F24.1 °F70 %30.05 in9.0 miNNW (340°)10.4 mph0.00 inSnowLight Snow
9:51 PM33.1 °F25.0 °F72 %30.06 in9.0 miNNW (340°)12.7 mph0.00 inSnowLight Snow
10:51 PM33.1 °F25.0 °F72 %30.07 in10.0 miNNW (330°)10.4 mph0.00 inOvercast
11:51 PM33.1 °F24.1 °F70 %30.07 in10.0 miNNW (330°)8.1 mphMostly Cloudy
Hourly data recorded from KORD, located miles away from Barrington, Illinois







STORIES FROM OUR PARTNERS